BEIDOU-2 IGSO-6

Last updated on Sat Dec 13 2025 00:02:49 GMT+0000 (Coordinated Universal Time)

1 41434U 16021A 25345.64528490 -.00000162 00000+0 00000+0 0 9991 2 41434 59.9644 39.9082 0060861 229.9753 135.9177 1.00293077 35600
UTC large
Height (km)
Speed (km/s)
/
Latitude / Longitude
Inclination (degrees)
Orbital Period (minutes)
Azimuth
Elevation
Range (km)
Doppler Factor

Next 0 passes for location: London (51.5072 / 0.1276)

Sorry there are no passes over London.